WB7TUJ Weather Reports


Display with metric or nautical units.
time (UTC)temp
F
wind
direction
speed
MPH
gust
MPH
rain 1hr
in
rain 24hr
in
rain mn
in
humidity
%
barometer
mb
20260502183012 87 107 2.0 11.0 0.00 0.00 0.00 26 968.8
20260502181525 86 126 0.0 11.0 0.00 0.00 0.00 27 969.0
20260502163058 82 113 5.0 13.0 0.00 0.00 0.00 31 969.5
20260502161554 82 134 5.0 13.0 0.00 0.00 0.00 32 969.5
20260502151553 79 101 0.0 0.0 0.00 0.00 0.00 34 969.2
20260502123027 67 50 0.0 0.0 0.00 0.00 0.00 38 967.3
20260502121515 66 50 0.0 0.0 0.00 0.00 0.00 38 967.1
20260502114511 66 50 0.0 0.0 0.00 0.00 0.00 40 966.9
20260502113007 67 50 0.0 0.0 0.00 0.00 0.00 39 966.8
20260502111510 67 50 0.0 0.0 0.00 0.00 0.00 37 966.8
20260502110008 67 50 0.0 0.0 0.00 0.00 0.00 37 966.8
20260502104601 68 49 0.0 0.0 0.00 0.00 0.00 36 966.7
20260502103110 68 49 0.0 0.0 0.00 0.00 0.00 36 966.6
20260502101611 68 49 0.0 0.0 0.00 0.00 0.00 37 966.5
20260502100120 69 50 0.0 0.0 0.00 0.00 0.00 35 966.4
20260502071531 73 61 0.0 0.0 0.00 0.00 0.00 34 966.0
20260502070027 74 94 0.0 0.0 0.00 0.00 0.00 34 965.9
20260502064526 74 94 0.0 0.0 0.00 0.00 0.00 33 965.8
20260502063026 75 94 0.0 0.0 0.00 0.00 0.00 33 965.8
20260502061534 76 92 0.0 0.0 0.00 0.00 0.00 32 965.6
20260502060026 77 263 0.0 0.0 0.00 0.00 0.00 32 965.4
20260502054526 78 263 0.0 0.0 0.00 0.00 0.00 29 965.4
20260502053025 78 263 0.0 0.0 0.00 0.00 0.00 28 965.4
20260502051525 79 263 0.0 0.0 0.00 0.00 0.00 28 965.3
20260502050024 80 263 0.0 0.0 0.00 0.00 0.00 27 965.2
20260502044523 80 263 0.0 0.0 0.00 0.00 0.00 26 965.2
20260502043025 80 263 0.0 0.0 0.00 0.00 0.00 27 965.1
20260502041528 81 263 0.0 0.0 0.00 0.00 0.00 26 964.8
20260502040021 81 263 0.0 0.0 0.00 0.00 0.00 25 964.7
20260502034522 82 263 0.0 0.0 0.00 0.00 0.00 24 964.6
20260502033025 82 263 0.0 0.0 0.00 0.00 0.00 23 964.4
20260502031520 83 263 0.0 0.0 0.00 0.00 0.00 24 964.2
20260502030021 84 263 0.0 0.0 0.00 0.00 0.00 23 964.0
20260502024521 84 263 0.0 0.0 0.00 0.00 0.00 23 963.9
20260502023020 84 263 0.0 0.0 0.00 0.00 0.00 23 963.8
20260502021519 85 263 0.0 0.0 0.00 0.00 0.00 23 963.6
20260502020018 85 260 0.0 0.0 0.00 0.00 0.00 23 963.5
20260502014517 86 276 0.0 0.0 0.00 0.00 0.00 21 963.5
20260502013017 86 277 0.0 0.0 0.00 0.00 0.00 21 963.5
20260502011515 87 280 0.0 12.0 0.00 0.00 0.00 20 963.4
20260502010013 87 295 0.0 11.0 0.00 0.00 0.00 21 963.5
20260502004512 87 269 2.0 12.0 0.00 0.00 0.00 22 963.4
20260502003013 88 294 0.0 9.0 0.00 0.00 0.00 22 963.3
20260502001510 87 220 0.0 6.0 0.00 0.00 0.00 24 963.4
20260502000014 87 241 0.0 10.0 0.00 0.00 0.00 23 963.4
20260501234508 87 200 3.0 10.0 0.00 0.00 0.00 24 963.5
20260501233008 87 186 0.0 16.0 0.00 0.00 0.00 25 963.5
20260501231505 88 238 3.0 11.0 0.00 0.00 0.00 24 963.7
20260501230007 87 286 0.0 0.0 0.00 0.00 0.00 25 963.8
20260501224503 88 340 2.0 12.0 0.00 0.00 0.00 24 963.8
20260501223107 87 198 0.0 9.0 0.00 0.00 0.00 25 964.0
20260501221557 86 246 0.0 11.0 0.00 0.00 0.00 24 964.2
20260501220058 85 185 1.0 12.0 0.00 0.00 0.00 24 964.3
20260501214559 86 285 0.0 7.0 0.00 0.00 0.00 25 964.6
20260501213154 85 244 3.0 14.0 0.00 0.00 0.00 25 964.7
20260501211606 85 341 0.0 9.0 0.00 0.00 0.00 25 965.1
20260501210153 85 215 0.0 12.0 0.00 0.00 0.00 26 965.2
20260501204619 85 240 0.0 8.0 0.00 0.00 0.00 26 965.4
20260501203048 84 254 0.0 8.0 0.00 0.00 0.00 26 965.6
20260501201547 83 271 2.0 12.0 0.00 0.00 0.00 28 965.7
20260501200145 83 139 0.0 7.0 0.00 0.00 0.00 29 965.8
20260501194544 82 165 0.0 9.0 0.00 0.00 0.00 30 966.0
20260501193142 82 168 1.0 6.0 0.00 0.00 0.00 30 966.1
20260501191539 81 187 0.0 10.0 0.00 0.00 0.00 30 966.4
20260501190039 80 240 0.0 7.0 0.00 0.00 0.00 31 966.6
20260501184538 82 200 0.0 6.0 0.00 0.00 0.00 31 966.8